Miscellaneous Local Product
Issued by NWS Hastings, NE

Home | Current Version | Previous Version | Graphics & Text | Print | Product List | Glossary On
Versions: 1 2 3 4 5 6 7 8 9 10 11 12 13 14 15 16 17 18 19 20 21 22 23 24 25 26 27 28 29 30 31 32 33 34 35 36 37 38 39 40 41 42 43 44 45 46 47 48 49 50
730
AXUS43 KGID 301202
MISGRI

GID CWA HOURLY WEATHER ROUNDUP
NATIONAL WEATHER SERVICE HASTINGS NE
700 AM CDT MON MAY 30 2016

NOTE: "FAIR" INDICATES FEW OR NO CLOUDS BELOW 12,000 FEET WITH NO
SIGNIFICANT WEATHER AND/OR OBSTRUCTIONS TO VISIBILITY.

...SOUTH CENTRAL NEBRASKA...

CITY           SKY/WX    TMP DP  RH WIND       PRES   REMARKS
GRAND ISLAND   CLOUDY    62  54  74 S7        30.01S
HASTINGS       PTCLDY    61  53  75 SE7       30.01F
KEARNEY        CLOUDY    61  52  72 CALM      30.02R
ORD            CLOUDY    58  54  86 CALM      29.99R
YORK           MOCLDY    59  55  88 CALM      30.03S
AURORA         CLOUDY    59  55  85 SE6       30.02S
LEXINGTON      PTCLDY    58  52  80 SE5       30.00R
HOLDREGE       MOCLDY    57  53  87 SE3       30.01R
HEBRON         CLOUDY    59  57  92 CALM      30.02S

...NEBRASKA PANHANDLE...

CITY           SKY/WX    TMP DP  RH WIND       PRES   REMARKS
CHADRON        CLOUDY    51  47  86 CALM      29.93S
ALLIANCE       CLOUDY    51  48  89 SE8       29.97S
SCOTTSBLUFF    CLEAR     49  46  90 E3        29.98S
SIDNEY         CLOUDY    52  48  86 SW12      30.01S

...WESTERN AND NORTH CENTRAL NEBRASKA...

CITY           SKY/WX    TMP DP  RH WIND       PRES   REMARKS
VALENTINE      CLOUDY    55  52  89 E6        29.97S
AINSWORTH      PTCLDY    54  53  94 E8        29.99R
ONEILL         PTCLDY    60  57  91 E5        29.97S
BROKEN BOW     CLOUDY    58  54  86 N3        30.00R
IMPERIAL       PTCLDY    58  50  75 SW9       29.98S
NORTH PLATTE   PTCLDY    53  51  93 E3        30.00R
MCCOOK         CLEAR     55  50  83 SW7       30.00R

...EASTERN NEBRASKA...

CITY           SKY/WX    TMP DP  RH WIND       PRES   REMARKS
NORFOLK        MOCLDY    63  56  78 SE9       30.00R
SO SIOUX CITY  MOSUNNY   64  54  69 E7        29.99R
TEKAMAH          N/A    N/A N/A N/A MISG      30.01R
COLUMBUS       MOCLDY    59  50  72 CALM      30.04R
ALBION         PTCLDY    58  54  85 SE7       29.99F
OMAHA EPPLEY   MOSUNNY   63  60  90 CALM      30.02R
OFFUTT AFB     SUNNY     62  62 100 N2        30.01R
MILLARD        SUNNY     61  59  94 CALM      30.01R
LINCOLN        CLEAR     63  60  90 CALM      30.02S
NEBRASKA CITY  SUNNY     63  63  99 CALM      30.01S
BEATRICE       CLEAR     62  59  90 CALM      30.01S
FALLS CITY     SUNNY     67  62  84 S5        30.01R

...NORTHERN KANSAS...

CITY           SKY/WX    TMP DP  RH WIND       PRES   REMARKS
GOODLAND       CLEAR     56  49  77 SW8       30.00F
HILL CITY      CLEAR     52  50  93 MISG      30.00R
NORTON         SUNNY     54  46  76 SE6       30.00R
PHILLIPSBURG   CLEAR     57  57 100 W7        30.01R
SMITH CENTER   CLEAR     55  54  94 E6        30.00R
BELOIT         CLEAR     61  59  94 SE5       30.00S
HAYS           CLEAR     55  46  71 SW8       30.01R
RUSSELL        NOT AVBL
CONCORDIA      CLOUDY    63  58  83 S6        30.02R
SALINA         CLEAR     60  58  92 SE6       30.02S
TOPEKA         CLEAR     64  62  93 CALM      30.04R



USA.gov is the U.S. government's official web portal to all federal, state and local government web resources and services.